Location: Central Coast
(33.3208°S, 151.2336°E)
Time: 18:50:40
(UTC+11:00)

Envisat - Pass Details

Date: 15 October 2017
Orbit: 764 x 766 km, 98.2° (Epoch: 23 October)

Event Time Altitude Azimuth Distance (km) Brightness Sun altitude
Rises 20:52:15 0° 158° (SSE) 3,265 6.3 -21.4°
Reaches altitude 10° 20:54:44 10° 150° (SSE) 2,331 5.5 -21.9°
Enters shadow 20:57:43 29° 124° (SE) 1,388 4.1 -22.4°
